Regional Weather Roundup
Issued by NWS

Home | Current Version | Previous Version | Text Only | Print | Product List | Glossary Off
Versions: 1 2 3 4 5 6 7 8 9 10 11 12 13 14 15 16 17 18 19 20 21 22 23 24 25 26 27 28 29 30 31 32 33 34 35 36 37 38 39 40 41 42 43 44 45 46 47 48 49 50

943
ASUS45 KBOI 222310
RWRID

IDAHO REGIONAL WEATHER ROUNDUP
NATIONAL WEATHER SERVICE BOISE ID
400 PM MST SUN JAN 22 2017

NOTE: "FAIR" INDICATES FEW OR NO CLOUDS BELOW 12000 FEET
WITH NO SIGNIFICANT WEATHER AND/OR OBSTRUCTIONS TO VISIBILITY

IDZ012-014-230000-
SOUTHWEST IDAHO


CITY           SKY/WX    TMP DP  RH WIND       PRES   REMARKS
BOISE          CLOUDY    40  30  67 SE12      29.61S WCI  33
CALDWELL       CLOUDY    36  31  82 SE14      29.62R WCI  27
MOUNTAIN HOME  CLOUDY    37  32  81 E22G29    29.62S WCI  26
$$

IDZ016-017-230000-
SOUTHCENTRAL IDAHO


CITY           SKY/WX    TMP DP  RH WIND       PRES   REMARKS
BURLEY         CLOUDY    35  27  72 S13G18    29.67F WCI  26
JEROME         CLOUDY    35  31  85 SE10      29.67S WCI  27
TWIN FALLS     CLOUDY    38  26  62 S28G35    29.58R WCI  26
$$

IDZ019>023-230000-
SOUTHEAST IDAHO


CITY           SKY/WX    TMP DP  RH WIND       PRES   REMARKS
IDAHO FALLS    LGT SNOW  30  28  92 S9G21     29.77F VSB 1   WCI  22
POCATELLO      LGT SNOW  33  27  78 S16       29.74F WCI  23
REXBURG        LGT SNOW  31  26  82 S15G28    29.76S VSB 1   WCI  20
$$

IDZ006-010-011-018-031-032-230000-
CENTRAL IDAHO MOUNTAINS


CITY           SKY/WX    TMP DP  RH WIND       PRES   REMARKS
MCCALL         LGT SNOW  29  26  89 S3        29.53F VSB 3/4
HAILEY         LGT SNOW  28  25  86 CALM      29.70F
STANLEY          N/A     25  22  88 SE16G26   29.58S WCI  12
SALMON         CLOUDY    19  16  86 CALM      29.68F
CHALLIS        CLOUDY    18  14  84 N5        29.64F WCI  11
$$

IDZ002-004-006-007-026-230000-
NORTHERN IDAHO


CITY           SKY/WX    TMP DP  RH WIND       PRES   REMARKS
LEWISTON       CLOUDY    38  32  79 N3        29.58S
LOWELL           N/A     36  32  85 CALM      29.63F
COEUR D`ALENE  LGT RAIN  38  32  79 VRB6      29.60R WCI  33
MULLAN PASS    CLOUDY    24  21  88 SE8       29.52F WCI  15
$$




USA.gov is the U.S. government's official web portal to all federal, state and local government web resources and services.